Location: Austin
(30.3000°N, 97.7500°W)
Time: 12:36:24
(UTC-06:00)

Cosmos 1782 Rocket - Pass Details

Date: 04 November 2025
Orbit: 601 x 624 km, 82.5° (Epoch: 07 November)

Event Time Altitude Azimuth Distance (km) Brightness Sun altitude
Rises 19:04:30 0° 186° (S) 2,878 7.2 -18.4°
Reaches altitude 10° 19:06:42 10° 187° (S) 1,979 6.3 -18.9°
Maximum altitude 19:11:06 85° 274° (W) 629 3.5 -19.8°
Drops below altitude 10° 19:15:32 10° 5° (N) 1,998 6.0 -20.8°
Sets 19:17:47 0° 6° (N) 2,908 6.9 -21.3°
